Location: Krakow
(50.0830°N, 19.9170°E)
Time: 05:55:05
(UTC+01:00)

SR - Pass Details

Date: 14 February 2023
Orbit: 582 x 867 km, 66.7° (Epoch: 20 March)

Event Time Altitude Azimuth Distance (km) Brightness Sun altitude
Rises 11:28:53 0° 202° (SSW) 3,175 ? 26.6°
Reaches altitude 10° 11:31:21 10° 199° (SSW) 2,208 ? 26.7°
Maximum altitude 11:36:15 57° 121° (ESE) 802 ? 26.8°
Drops below altitude 10° 11:40:47 10° 43° (NE) 2,048 ? 26.8°
Sets 11:43:01 0° 40° (NE) 2,924 ? 26.8°
